Location: Innsbruck
(47.2657°N, 11.3914°E)
Time: 00:11:10
(UTC+01:00)

BEESAT 2 - Pass Details

Date: 02 December 2021
Orbit: 498 x 513 km, 64.9° (Epoch: 25 January)

Event Time Altitude Azimuth Distance (km) Brightness Sun altitude
Exits shadow 05:52:35 13° 351° (N) 1,575 ? -17.8°
Maximum altitude 05:55:08 22° 38° (NE) 1,157 ? -17.4°
Drops below altitude 10° 05:58:15 10° 91° (E) 1,744 ? -16.9°
Sets 06:00:46 0° 107° (ESE) 2,625 ? -16.5°
